EW3861 Weather Reports


time (UTC)temp
C
wind
direction
speed
KPH
gust
KPH
rain 1hr
cm
rain 24hr
cm
rain mn
cm
humidity
%
barometer
mb
20260831230006 21 200 0.0 0.0 0.00 0.00 0.00 78 1017.3
20260831224504 21 200 0.0 0.0 0.00 0.00 0.00 78 1017.3
20260831223005 22 223 0.0 0.0 0.00 0.00 0.00 74 1017.4
20260831221504 22 250 0.0 0.0 0.00 0.00 0.00 75 1017.5
20260831220005 23 250 0.0 0.0 0.00 0.00 0.00 71 1017.4
20260831214503 23 250 0.0 0.0 0.00 0.00 0.00 71 1017.4
20260831213002 23 250 0.0 0.0 0.00 0.00 0.00 70 1017.3
20260831211503 23 250 0.0 0.0 0.00 0.00 0.00 71 1017.3
20260831210001 23 253 0.0 0.0 0.00 0.00 0.00 68 1017.4
20260831204502 23 253 0.0 0.0 0.00 0.00 0.00 66 1017.4
20260831203108 23 253 0.0 0.0 0.00 0.00 0.00 64 1017.3
20260831201600 24 253 0.0 0.0 0.00 0.00 0.00 65 1017.2
20260831200059 25 253 0.0 0.0 0.00 0.00 0.00 62 1017.3
20260831194637 25 253 0.0 0.0 0.00 0.00 0.00 62 1017.4
20260831193100 25 253 0.0 0.0 0.00 0.00 0.00 59 1017.6
20260831191557 24 252 0.0 0.0 0.00 0.00 0.00 59 1017.7
20260831190112 24 253 0.0 0.0 0.00 0.00 0.00 63 1017.8
20260831184559 24 253 0.0 0.0 0.00 0.00 0.00 64 1018.0
20260831183059 23 256 0.0 0.0 0.00 0.00 0.00 60 1018.2
20260831181556 24 223 0.0 0.0 0.00 0.00 0.00 61 1018.2
20260831180049 23 223 0.0 0.0 0.00 0.00 0.00 59 1018.3
20260831174546 23 222 0.0 0.0 0.00 0.00 0.00 64 1018.7
20260831173044 22 221 0.0 0.0 0.00 0.00 0.00 63 1018.6
20260831171543 22 220 0.0 0.0 0.00 0.00 0.00 65 1018.6
20260831170039 21 14 0.0 0.0 0.00 0.00 0.00 65 1018.8
20260831164539 21 15 0.0 0.0 0.00 0.00 0.00 72 1018.9
20260831163038 21 30 0.0 0.0 0.00 0.00 0.00 74 1019.0
20260831161533 21 42 0.0 0.0 0.00 0.00 0.00 77 1019.1
20260831160031 20 42 0.0 0.0 0.00 0.00 0.00 73 1019.1
20260831154529 20 42 0.0 0.0 0.00 0.00 0.00 78 1019.2
20260831153029 19 42 0.0 0.0 0.00 0.00 0.00 81 1019.5
20260831151531 18 39 0.0 0.0 0.00 0.00 0.00 84 1019.6
20260831150025 18 39 0.0 0.0 0.00 0.00 0.00 88 1019.4
20260831144532 18 39 0.0 0.0 0.00 0.00 0.00 92 1019.3
20260831143033 17 13 0.0 0.0 0.00 0.00 0.00 94 1019.4
20260831141542 17 13 0.0 0.0 0.00 0.00 0.00 95 1019.3
20260831140036 17 13 0.0 0.0 0.00 0.00 0.00 96 1019.3
20260831134520 17 13 0.0 0.0 0.00 0.00 0.00 96 1019.2
20260831133030 17 80 0.0 0.0 0.00 0.00 0.00 97 1019.1
20260831131519 17 80 0.0 0.0 0.00 0.00 0.00 97 1019.2
20260831130017 17 323 0.0 0.0 0.00 0.00 0.00 97 1019.1
20260831124520 17 323 0.0 0.0 0.00 0.00 0.00 97 1019.1
20260831123014 17 324 0.0 0.0 0.00 0.00 0.00 97 1018.9
20260831121513 16 324 0.0 0.0 0.00 0.00 0.00 97 1018.7
20260831120013 16 184 0.0 0.0 0.00 0.00 0.00 96 1018.7
20260831114511 16 184 0.0 0.0 0.00 0.00 0.00 96 1018.7
20260831113011 15 184 0.0 0.0 0.00 0.00 0.00 96 1018.5
20260831111508 15 184 0.0 0.0 0.00 0.00 0.00 95 1018.3
20260831110007 15 184 0.0 0.0 0.00 0.00 0.00 95 1018.3
20260831104505 15 184 0.0 0.0 0.00 0.00 0.00 95 1018.1
20260831103005 15 184 0.0 0.0 0.00 0.00 0.00 95 1018.1
20260831101503 15 184 0.0 0.0 0.00 0.00 0.00 94 1017.8
20260831100001 16 184 0.0 0.0 0.00 0.00 0.00 94 1017.7
20260831094559 16 184 0.0 0.0 0.00 0.00 0.00 94 1017.5
20260831093057 16 184 0.0 0.0 0.00 0.00 0.00 94 1017.4
20260831091555 16 184 0.0 0.0 0.00 0.00 0.00 94 1017.2
20260831090106 16 184 0.0 0.0 0.00 0.00 0.00 94 1017.2
20260831084550 16 184 0.0 0.0 0.00 0.00 0.00 94 1017.1
20260831083051 17 184 0.0 0.0 0.00 0.00 0.00 94 1017.0
20260831081549 17 184 0.0 0.0 0.00 0.00 0.00 94 1016.9
20260831080045 17 184 0.0 0.0 0.00 0.00 0.00 94 1016.8
20260831074542 17 184 0.0 0.0 0.00 0.00 0.00 94 1016.6
20260831073040 17 184 0.0 0.0 0.00 0.00 0.00 94 1016.5
20260831071538 18 184 0.0 0.0 0.00 0.00 0.00 94 1016.4
20260831070038 18 184 0.0 0.0 0.00 0.00 0.00 94 1016.3
20260831064535 18 184 0.0 0.0 0.00 0.00 0.00 94 1016.2
20260831063033 18 184 0.0 0.0 0.00 0.00 0.00 93 1016.2
20260831061532 18 184 0.0 0.0 0.00 0.00 0.00 93 1016.1
20260831060030 19 190 0.0 0.0 0.00 0.00 0.00 93 1016.1
20260831054528 19 190 0.0 0.0 0.00 0.00 0.00 93 1016.1
20260831053026 20 190 0.0 0.0 0.00 0.00 0.00 93 1015.9
20260831051528 20 190 0.0 0.0 0.00 0.00 0.00 93 1015.7
20260831050021 20 190 0.0 0.0 0.00 0.00 0.00 93 1015.7
20260831044521 20 236 0.0 0.0 0.00 0.00 0.00 93 1015.7
20260831043019 20 236 0.0 0.0 0.00 0.00 0.00 92 1015.8
20260831041524 20 236 0.0 0.0 0.00 0.00 0.00 92 1015.8
20260831040014 21 236 0.0 0.0 0.00 0.00 0.00 92 1015.9
20260831034513 21 236 0.0 0.0 0.00 0.00 0.00 92 1015.8
20260831033016 21 239 0.0 0.0 0.00 0.00 0.00 90 1015.7
20260831031512 21 239 0.0 0.0 0.00 0.00 0.00 89 1016.0
20260831030016 21 239 0.0 0.0 0.00 0.00 0.00 88 1015.8
20260831024512 22 239 0.0 0.0 0.00 0.00 0.00 86 1015.8
20260831023011 22 239 0.0 0.0 0.00 0.00 0.00 84 1016.0
20260831021511 22 236 0.0 0.0 0.00 0.00 0.00 82 1015.8
20260831020010 22 220 0.0 0.0 0.00 0.00 0.00 81 1015.8
20260831014509 22 217 0.0 0.0 0.00 0.00 0.00 81 1015.6
20260831013009 22 227 0.0 0.0 0.00 0.00 0.00 79 1015.6
20260831011513 22 234 0.0 0.0 0.00 0.00 0.00 77 1015.5
20260831010007 22 223 0.0 0.0 0.00 0.00 0.00 76 1015.5
20260831004506 22 227 0.0 0.0 0.00 0.00 0.00 75 1015.4
20260831003005 23 229 0.0 0.0 0.00 0.00 0.00 73 1015.3
20260831001505 23 302 0.0 0.0 0.00 0.00 0.00 72 1015.3
20260831000004 23 203 0.0 0.0 0.00 0.00 0.00 70 1015.1
20260830234504 23 252 0.0 0.0 0.00 0.00 0.00 68 1014.9
20260830233003 23 225 0.0 0.0 0.00 0.00 0.00 66 1015.0
20260830231502 23 214 0.0 0.0 0.00 0.00 0.00 65 1015.2